Weather History for Delaware, OH

Change the Weather History Date:

Monday, December 3, 2012

  Actual Average Record
Temperature  
Mean Temperature 56 °F -  
Max Temperature 60 °F 43 °F 69 °F (1982)
Min Temperature 51 °F 26 °F -3 °F (1976)
Degree Days  
Heating Degree Days 10    
Growing Degree Days 6 (Base 50)    
Moisture  
Dew Point 54 °F    
Average Humidity 91    
Maximum Humidity 100    
Minimum Humidity 82    
Precipitation  
Precipitation 0.00 in - - ()
Sea Level Pressure  
Sea Level Pressure 30.12 in    
Wind  
Wind Speed 5 mph (South)    
Max Wind Speed 13 mph    
Max Gust Speed 17 mph    
Visibility 6 miles    
Events Fog , Rain    
Averages and records for this station are not official NWS values.
T = Trace of Precipitation, MM = Missing Value Source: NWS Daily Summary

Daily Weather History Graph

Daily Weather History Graph

Search for Another Location

Airport:

Trip Planner

Search our weather history database for the weather conditions in past years. The results will help you decide how hot, cold, wet, or windy it might be!

Date:

Astronomy

Dec. 03, 2012 Rise Set
Actual Time 7:38 AM EST 5:06 PM EST
Civil Twilight 7:08 AM EST 5:36 PM EST
Nautical Twilight 6:34 AM EST 6:10 PM EST
Astronomical Twilight 6:01 AM EST 6:43 PM EST
Moon 9:52 PM EST (12/3) 11:00 AM EST (12/3)
Length of Visible Light 10h 28m
Length of Day
9h 28m
Waning Gibbous, 78% of the Moon is Illuminated
Dec 3
Waning Gibbous
Dec 6
Last Quarter
Dec 13
New
Dec 20
First Quarter
Dec 28
Full

Hourly Weather History & Observations

Time (EST) Temp. Dew Point Humidity Pressure Visibility Wind Dir Wind Speed Gust Speed Precip Events Conditions
12:20 AM 53.6 °F 51.8 °F 94% 30.14 in 0.2 mi Calm Calm - N/A Fog Fog
12:39 AM 53.6 °F 51.8 °F 94% 30.14 in 0.2 mi Calm Calm - N/A Fog Fog
12:59 AM 51.8 °F 51.8 °F 100% 30.14 in 0.2 mi Calm Calm - N/A Fog Fog
1:20 AM 53.6 °F 51.8 °F 94% 30.15 in 0.2 mi Calm Calm - N/A Fog Fog
1:39 AM 53.6 °F 51.8 °F 94% 30.15 in 0.2 mi Calm Calm - N/A Fog Fog
1:59 AM 53.6 °F 53.6 °F 100% 30.15 in 1.0 mi South 4.6 mph - N/A   Overcast
2:20 AM 53.6 °F 53.6 °F 100% 30.15 in 0.8 mi South 4.6 mph - N/A   Overcast
2:39 AM 53.6 °F 53.6 °F 100% 30.15 in 0.2 mi South 3.5 mph - N/A Fog Fog
2:59 AM 53.6 °F 53.6 °F 100% 30.15 in 0.2 mi Calm Calm - N/A Fog Fog
3:19 AM 53.6 °F 51.8 °F 94% 30.15 in 0.2 mi Calm Calm - N/A Fog Fog
3:39 AM 53.6 °F 51.8 °F 94% 30.15 in 0.2 mi SSE 3.5 mph - N/A Fog Fog
3:59 AM 53.6 °F 51.8 °F 94% 30.15 in 0.2 mi South 3.5 mph - N/A Fog Fog
4:19 AM 53.6 °F 53.6 °F 100% 30.15 in 0.2 mi SSE 3.5 mph - N/A Fog Fog
4:39 AM 53.6 °F 53.6 °F 100% 30.14 in 0.2 mi SSE 5.8 mph - N/A Fog Fog
4:59 AM 53.6 °F 51.8 °F 94% 30.14 in 0.2 mi South 3.5 mph - N/A Fog Fog
5:19 AM 53.6 °F 53.6 °F 100% 30.14 in 0.2 mi South 5.8 mph - N/A Fog Fog
5:39 AM 53.6 °F 53.6 °F 100% 30.14 in 0.2 mi Calm Calm - N/A Fog Fog
6:00 AM 53.6 °F 51.8 °F 94% 30.15 in 0.2 mi Calm Calm - N/A Fog Fog
6:19 AM 53.6 °F 51.8 °F 94% 30.15 in 0.5 mi South 3.5 mph - N/A Fog Fog
6:39 AM 53.6 °F 51.8 °F 94% 30.15 in 0.5 mi Calm Calm - N/A Fog Fog
7:00 AM 53.6 °F 53.6 °F 100% 30.16 in 0.5 mi South 3.5 mph - N/A Fog Fog
7:19 AM 53.6 °F 53.6 °F 100% 30.16 in 1.0 mi South 4.6 mph - N/A   Overcast
7:39 AM 53.6 °F 53.6 °F 100% 30.16 in 1.2 mi South 4.6 mph - N/A Rain Light Rain
8:19 AM 53.6 °F 53.6 °F 100% 30.16 in 1.5 mi SSE 3.5 mph - N/A   Overcast
8:39 AM 53.6 °F 53.6 °F 100% 30.17 in 1.8 mi SSE 4.6 mph - N/A   Overcast
9:00 AM 53.6 °F 53.6 °F 100% 30.17 in 1.5 mi SSE 5.8 mph - N/A   Overcast
9:19 AM 55.4 °F 53.6 °F 94% 30.17 in 2.5 mi South 5.8 mph - N/A   Overcast
9:39 AM 55.4 °F 53.6 °F 94% 30.16 in 4.0 mi South 8.1 mph - N/A   Overcast
10:19 AM 55.4 °F 55.4 °F 100% 30.16 in 5.0 mi South 6.9 mph - N/A   Overcast
10:39 AM 55.4 °F 55.4 °F 100% 30.16 in 5.0 mi South 8.1 mph - N/A   Overcast
10:59 AM 55.4 °F 55.4 °F 100% 30.15 in 7.0 mi South 8.1 mph - N/A   Overcast
11:19 AM 59.0 °F 57.2 °F 94% 30.15 in 10.0 mi South 10.4 mph - N/A   Overcast
11:39 AM 59.0 °F 57.2 °F 94% 30.14 in 10.0 mi SSW 9.2 mph - N/A   Overcast
11:59 AM 59.0 °F 55.4 °F 88% 30.14 in 10.0 mi SSW 10.4 mph - N/A   Overcast
12:19 PM 59.0 °F 55.4 °F 88% 30.13 in 10.0 mi South 9.2 mph - N/A   Overcast
12:40 PM 59.0 °F 53.6 °F 82% 30.12 in 10.0 mi SSW 10.4 mph - N/A   Overcast
12:59 PM 59.0 °F 53.6 °F 82% 30.12 in 10.0 mi South 6.9 mph - N/A   Overcast
1:19 PM 60.8 °F 55.4 °F 82% 30.11 in 10.0 mi South 11.5 mph - N/A   Overcast
1:40 PM 60.8 °F 55.4 °F 82% 30.11 in 10.0 mi South 11.5 mph - N/A   Overcast
1:59 PM 60.8 °F 55.4 °F 82% 30.10 in 10.0 mi SSW 8.1 mph - N/A   Overcast
2:19 PM 60.8 °F 55.4 °F 82% 30.10 in 10.0 mi South 9.2 mph - N/A   Overcast
2:40 PM 60.8 °F 55.4 °F 82% 30.09 in 10.0 mi South 9.2 mph - N/A   Overcast
2:59 PM 60.8 °F 55.4 °F 82% 30.09 in 10.0 mi South 10.4 mph - N/A   Overcast
3:19 PM 60.8 °F 55.4 °F 82% 30.09 in 10.0 mi South 9.2 mph - N/A   Overcast
3:40 PM 60.8 °F 55.4 °F 82% 30.10 in 10.0 mi SSW 9.2 mph - N/A   Overcast
3:59 PM 60.8 °F 55.4 °F 82% 30.09 in 10.0 mi South 5.8 mph - N/A   Overcast
4:19 PM 60.8 °F 55.4 °F 82% 30.09 in 10.0 mi South 6.9 mph - N/A   Mostly Cloudy
4:40 PM 60.8 °F 55.4 °F 82% 30.10 in 10.0 mi SSE 6.9 mph - N/A   Overcast
4:59 PM 59.0 °F 53.6 °F 82% 30.10 in 10.0 mi SSE 8.1 mph - N/A   Mostly Cloudy
5:19 PM 59.0 °F 53.6 °F 82% 30.10 in 10.0 mi SE 6.9 mph - N/A   Mostly Cloudy
5:40 PM 57.2 °F 53.6 °F 88% 30.10 in 10.0 mi SE 6.9 mph - N/A   Scattered Clouds
5:59 PM 57.2 °F 53.6 °F 88% 30.10 in 10.0 mi SE 6.9 mph - N/A   Clear
6:19 PM 55.4 °F 53.6 °F 94% 30.10 in 10.0 mi SSE 8.1 mph - N/A   Scattered Clouds
6:39 PM 55.4 °F 53.6 °F 94% 30.10 in 10.0 mi SSE 8.1 mph - N/A   Clear
6:59 PM 57.2 °F 53.6 °F 88% 30.10 in 10.0 mi SSE 8.1 mph - N/A   Clear
7:19 PM 57.2 °F 53.6 °F 88% 30.10 in 10.0 mi South 8.1 mph - N/A   Clear
7:39 PM 59.0 °F 53.6 °F 82% 30.09 in 10.0 mi South 9.2 mph - N/A   Clear
7:59 PM 59.0 °F 53.6 °F 82% 30.09 in 10.0 mi South 11.5 mph - N/A   Clear
8:19 PM 59.0 °F 53.6 °F 82% 30.09 in 10.0 mi South 12.7 mph - N/A   Clear
8:39 PM 59.0 °F 53.6 °F 82% 30.09 in 10.0 mi South 12.7 mph 17.3 mph N/A   Clear
8:59 PM 57.2 °F 53.6 °F 88% 30.09 in 10.0 mi South 10.4 mph - N/A   Clear
9:20 PM 57.2 °F 51.8 °F 82% 30.09 in 10.0 mi South 10.4 mph - N/A   Clear
9:39 PM 57.2 °F 51.8 °F 82% 30.08 in 10.0 mi South 10.4 mph - N/A   Clear
9:59 PM 57.2 °F 51.8 °F 82% 30.09 in 10.0 mi South 10.4 mph - N/A   Clear
10:20 PM 55.4 °F 51.8 °F 88% 30.09 in 10.0 mi South 9.2 mph - N/A   Clear
10:39 PM 55.4 °F 51.8 °F 88% 30.09 in 10.0 mi South 9.2 mph - N/A   Clear
10:59 PM 55.4 °F 51.8 °F 88% 30.10 in 10.0 mi South 9.2 mph - N/A   Clear
11:20 PM 55.4 °F 51.8 °F 88% 30.10 in 10.0 mi South 9.2 mph - N/A   Clear
11:39 PM 55.4 °F 51.8 °F 88% 30.09 in 10.0 mi South 9.2 mph - N/A   Clear
11:59 PM 55.4 °F 50.0 °F 82% 30.09 in 10.0 mi South 9.2 mph - N/A   Clear